Winona, MN

10:04 PM CDT on July 22, 2017 (GMT -0500)
Winona Municipal-Conrad

Weather History for KONA - January, 2012

Change the Weather History Date:

Monday, January 30, 2012

  Actual Average Record
Temperature  
Mean Temperature 30 °F -  
Max Temperature 42 °F 29 °F 48 °F (2016)
Min Temperature 17 °F 9 °F -13 °F (2004)
Degree Days  
Heating Degree Days 36    
Moisture  
Dew Point 18 °F    
Average Humidity 66    
Maximum Humidity 80    
Minimum Humidity 46    
Precipitation  
Precipitation 0.00 in - - ()
Sea Level Pressure  
Sea Level Pressure 29.81 in    
Wind  
Wind Speed 7 mph (SE)    
Max Wind Speed 13 mph    
Max Gust Speed -    
Visibility 10 miles    
Events      
Averages and records for this station are not official NWS values.
T = Trace of Precipitation, MM = Missing Value Source: NWS Daily Summary

Daily Weather History Graph

Daily Weather History Graph

Search for Another Location

Airport or City:

Trip Planner

Search our weather history database for the weather conditions in past years. The results will help you decide how hot, cold, wet, or windy it might be!

Date:

Astronomy

Jan. 30, 2012 Rise Set
Actual Time 7:27 AM CST 5:13 PM CST
Civil Twilight 6:56 AM CST 5:44 PM CST
Nautical Twilight 6:21 AM CST 6:19 PM CST
Astronomical Twilight 5:47 AM CST 6:53 PM CST
Moon 10:31 AM CST (1/30) 12:15 AM CST (1/30)
Length of Visible Light 10h 48m
Length of Day
9h 46m
Waxing Crescent, 46% of the Moon is Illuminated
Jan 30
Waxing Crescent
Jan 30
First Quarter
Feb 7
Full
Feb 14
Last Quarter
Feb 21
New

Hourly Weather History & Observations

Time (CST) Temp. Windchill Dew Point Humidity Pressure Visibility Wind Dir Wind Speed Gust Speed Precip Events Conditions
12:17 AM 17.6 °F 7.3 °F 8.6 °F 68% 30.04 in 10.0 mi SE 8.1 mph - N/A   Overcast
12:37 AM 17.6 °F 8.2 °F 8.6 °F 68% 30.04 in 10.0 mi SE 6.9 mph - N/A   Overcast
12:57 AM 17.6 °F 7.3 °F 8.6 °F 68% 30.03 in 10.0 mi SE 8.1 mph - N/A   Overcast
1:17 AM 17.6 °F 8.2 °F 8.6 °F 68% 30.02 in 10.0 mi SE 6.9 mph - N/A   Mostly Cloudy
1:37 AM 17.6 °F 8.2 °F 10.4 °F 73% 30.00 in 10.0 mi SE 6.9 mph - N/A   Scattered Clouds
1:57 AM 17.6 °F 7.3 °F 10.4 °F 73% 29.98 in 10.0 mi SE 8.1 mph - N/A   Mostly Cloudy
2:17 AM 17.6 °F 7.3 °F 10.4 °F 73% 29.98 in 10.0 mi SE 8.1 mph - N/A   Overcast
2:37 AM 19.4 °F 7.9 °F 10.4 °F 68% 29.95 in 10.0 mi SE 10.4 mph - N/A   Overcast
2:57 AM 19.4 °F 8.6 °F 10.4 °F 68% 29.94 in 10.0 mi SE 9.2 mph - N/A   Scattered Clouds
3:17 AM 19.4 °F 8.6 °F 10.4 °F 68% 29.93 in 10.0 mi SE 9.2 mph - N/A   Scattered Clouds
3:37 AM 19.4 °F 7.9 °F 12.2 °F 74% 29.91 in 10.0 mi SE 10.4 mph - N/A   Mostly Cloudy
3:57 AM 19.4 °F 6.6 °F 12.2 °F 74% 29.88 in 10.0 mi SE 12.7 mph - N/A   Scattered Clouds
4:17 AM 19.4 °F 7.2 °F 12.2 °F 74% 29.86 in 10.0 mi SE 11.5 mph - N/A   Scattered Clouds
4:37 AM 19.4 °F 7.9 °F 12.2 °F 74% 29.86 in 10.0 mi SE 10.4 mph - N/A   Mostly Cloudy
4:57 AM 21.2 °F 11.7 °F 12.2 °F 68% 29.84 in 10.0 mi SE 8.1 mph - N/A   Mostly Cloudy
5:17 AM 21.2 °F 12.6 °F 14.0 °F 74% 29.85 in 10.0 mi ESE 6.9 mph - N/A   Overcast
5:37 AM 21.2 °F 14.9 °F 14.0 °F 74% 29.84 in 10.0 mi SE 4.6 mph - N/A   Mostly Cloudy
5:57 AM 21.2 °F 14.9 °F 14.0 °F 74% 29.84 in 10.0 mi SSE 4.6 mph - N/A   Mostly Cloudy
6:17 AM 23.0 °F 14.7 °F 14.0 °F 68% 29.82 in 10.0 mi SE 6.9 mph - N/A   Mostly Cloudy
6:38 AM 23.0 °F 14.7 °F 15.8 °F 74% 29.82 in 10.0 mi SE 6.9 mph - N/A   Mostly Cloudy
6:57 AM 23.0 °F 13.9 °F 15.8 °F 74% 29.81 in 10.0 mi SE 8.1 mph - N/A   Mostly Cloudy
7:17 AM 23.0 °F 14.7 °F 15.8 °F 74% - 10.0 mi SE 6.9 mph - N/A   Overcast
7:38 AM 23.0 °F 13.9 °F 15.8 °F 74% 29.78 in 10.0 mi SE 8.1 mph - N/A   Overcast
7:57 AM 23.0 °F 17.0 °F 15.8 °F 74% 29.79 in 10.0 mi SE 4.6 mph - N/A   Scattered Clouds
8:17 AM 23.0 °F - 15.8 °F 74% 29.81 in 10.0 mi Calm Calm - N/A   Clear
8:38 AM 23.0 °F 17.0 °F 15.8 °F 74% 29.79 in 10.0 mi SSE 4.6 mph - N/A   Clear
8:57 AM 26.6 °F 21.2 °F 17.6 °F 69% 29.80 in 10.0 mi SE 4.6 mph - N/A   Mostly Cloudy
9:17 AM 26.6 °F 18.2 °F 17.6 °F 69% 29.78 in 10.0 mi SE 8.1 mph - N/A   Overcast
9:37 AM 28.4 °F 21.2 °F 17.6 °F 64% 29.77 in 10.0 mi SE 6.9 mph - N/A   Overcast
9:57 AM 28.4 °F 20.4 °F 19.4 °F 69% 29.77 in 10.0 mi ESE 8.1 mph - N/A   Overcast
10:17 AM 28.4 °F 20.4 °F 19.4 °F 69% 29.76 in 10.0 mi SE 8.1 mph - N/A   Mostly Cloudy
10:37 AM 32.0 °F 24.8 °F 21.2 °F 64% 29.76 in 10.0 mi SE 8.1 mph - N/A   Scattered Clouds
10:58 AM 32.0 °F 24.8 °F 21.2 °F 64% 29.75 in 10.0 mi SE 8.1 mph - N/A   Clear
11:17 AM 32.0 °F 25.6 °F 19.4 °F 60% 29.75 in 10.0 mi SSE 6.9 mph - N/A   Clear
11:37 AM 33.8 °F 29.6 °F 19.4 °F 56% 29.74 in 10.0 mi SSE 4.6 mph - N/A   Clear
11:57 AM 35.6 °F 31.7 °F 21.2 °F 56% 29.73 in 10.0 mi South 4.6 mph - N/A   Clear
12:17 PM 35.6 °F 30.7 °F 21.2 °F 56% 29.72 in 10.0 mi SSE 5.8 mph - N/A   Clear
12:37 PM 35.6 °F 31.7 °F 21.2 °F 56% 29.72 in 10.0 mi SSE 4.6 mph - N/A   Clear
12:57 PM 37.4 °F 34.9 °F 21.2 °F 52% 29.71 in 10.0 mi SE 3.5 mph - N/A   Clear
1:17 PM 37.4 °F 34.9 °F 23.0 °F 56% 29.70 in 10.0 mi SE 3.5 mph - N/A   Clear
1:37 PM 37.4 °F - 23.0 °F 56% 29.70 in 10.0 mi Calm Calm - N/A   Clear
1:57 PM 41.0 °F 39.0 °F 23.0 °F 49% 29.70 in 10.0 mi SE 3.5 mph - N/A   Clear
2:17 PM 41.0 °F - 23.0 °F 49% 29.70 in 10.0 mi Calm Calm - N/A   Clear
2:37 PM 42.8 °F 41.1 °F 23.0 °F 46% 29.70 in 10.0 mi South 3.5 mph - N/A   Clear
2:58 PM 41.0 °F 39.0 °F 23.0 °F 49% 29.71 in 10.0 mi South 3.5 mph - N/A   Clear
3:17 PM 37.4 °F 32.8 °F 23.0 °F 56% 29.71 in 10.0 mi SSE 5.8 mph - N/A   Clear
3:37 PM 37.4 °F - 23.0 °F 56% 29.71 in 10.0 mi Calm Calm - N/A   Clear
3:58 PM 37.4 °F 33.8 °F 23.0 °F 56% 29.71 in 10.0 mi SSE 4.6 mph - N/A   Clear
4:17 PM 37.4 °F 33.8 °F 24.8 °F 60% 29.71 in 10.0 mi SSE 4.6 mph - N/A   Clear
4:37 PM 37.4 °F - 24.8 °F 60% 29.71 in 10.0 mi Calm Calm - N/A   Clear
4:58 PM 35.6 °F 31.7 °F 24.8 °F 65% 29.71 in 10.0 mi SSE 4.6 mph - N/A   Clear
5:17 PM 35.6 °F 32.8 °F 24.8 °F 65% 29.71 in 10.0 mi SSE 3.5 mph - N/A   Clear
5:38 PM 35.6 °F 32.8 °F 26.6 °F 70% 29.71 in 10.0 mi SE 3.5 mph - N/A   Clear
5:57 PM 32.0 °F - 26.6 °F 80% 29.72 in 10.0 mi Calm Calm - N/A   Clear
6:17 PM 32.0 °F - 24.8 °F 75% 29.72 in 10.0 mi Calm Calm - N/A   Clear
6:37 PM 32.0 °F - 26.6 °F 80% 29.71 in 10.0 mi Calm Calm - N/A   Clear
6:57 PM 32.0 °F - 24.8 °F 75% 29.72 in 10.0 mi Calm Calm - N/A   Clear
7:17 PM 32.0 °F - 26.6 °F 80% 29.73 in 10.0 mi Calm Calm - N/A   Clear
7:37 PM 30.2 °F - 26.6 °F 86% 29.73 in 10.0 mi Calm Calm - N/A   Clear
7:57 PM 28.4 °F - 23.0 °F 80% 29.73 in 10.0 mi Calm Calm - N/A   Clear
8:17 PM 28.4 °F - 23.0 °F 80% 29.72 in 10.0 mi Calm Calm - N/A   Clear
8:37 PM 28.4 °F - 24.8 °F 86% 29.72 in 10.0 mi Calm Calm - N/A   Clear
8:57 PM 26.6 °F - 23.0 °F 86% 29.72 in 10.0 mi Calm Calm - N/A   Clear
9:18 PM 26.6 °F - 23.0 °F 86% 29.72 in 10.0 mi Calm Calm - N/A   Clear
9:37 PM 26.6 °F - 23.0 °F 86% 29.73 in 10.0 mi Calm Calm - N/A   Clear
9:58 PM 26.6 °F - 23.0 °F 86% 29.72 in 10.0 mi Calm Calm - N/A   Clear
10:17 PM 26.6 °F - 23.0 °F 86% 29.72 in 10.0 mi Calm Calm - N/A   Clear
10:37 PM 26.6 °F - 23.0 °F 86% 29.71 in 10.0 mi Calm Calm - N/A   Clear
10:58 PM 26.6 °F - 23.0 °F 86% 29.70 in 10.0 mi Calm Calm - N/A   Clear
11:17 PM 26.6 °F - 24.8 °F 93% 29.70 in 10.0 mi Calm Calm - N/A   Clear
11:37 PM 26.6 °F - 23.0 °F 86% 29.70 in 10.0 mi Calm Calm - N/A   Clear
11:58 PM 26.6 °F - 23.0 °F 86% 29.69 in 10.0 mi Calm Calm - N/A   Clear